EJU42RP LFMN-EHAM

Flight info

Callsign EJU42RP
Flight time 1h 30m
Altitude 36000
Route IRMAR DCT KINES DCT VANAS DCT MOBLO DCT UBIMA DCT GILIR DCT PENDU DCT IXILU DCT EPL DCT ROUSY DCT BUB Y28 HELEN
Aircraft A320/M-SDE3FGHIRWY/LB1

Departure

Time 2026-05-04 18:02
Airport Nice-Côte d'Azur Airport (LFMN)

Arrival

Time 2026-05-04 19:32
Airport Amsterdam Airport Schiphol (EHAM)
Time Latitude Longitude Altitude Speed Heading
2026-05-04 17:29 43.65995 7.20721 25 ft 0 kts 259°
2026-05-04 17:30 43.65994 7.20719 25 ft 0 kts 259°
2026-05-04 17:51 43.65998 7.20744 21 ft 3 kts 259°
2026-05-04 17:51 43.66001 7.20767 23 ft 3 kts 259°
2026-05-04 17:51 43.66006 7.20792 22 ft 3 kts 230°
2026-05-04 17:52 43.66020 7.20807 24 ft 3 kts 185°
2026-05-04 17:52 43.66039 7.20805 24 ft 3 kts 169°
2026-05-04 17:52 43.66040 7.20804 24 ft 0 kts 169°
2026-05-04 17:54 43.66032 7.20806 21 ft 3 kts 169°
2026-05-04 17:54 43.66000 7.20818 21 ft 7 kts 167°
2026-05-04 17:54 43.65940 7.20831 21 ft 10 kts 171°
2026-05-04 17:55 43.65873 7.20847 22 ft 9 kts 171°
2026-05-04 17:55 43.65811 7.20861 21 ft 9 kts 171°
2026-05-04 17:55 43.65755 7.20873 21 ft 8 kts 171°
2026-05-04 17:55 43.65705 7.20884 23 ft 7 kts 169°
2026-05-04 17:56 43.65658 7.20896 21 ft 7 kts 172°
2026-05-04 17:56 43.65601 7.20908 21 ft 9 kts 170°
2026-05-04 17:56 43.65530 7.20924 23 ft 11 kts 171°
2026-05-04 17:56 43.65446 7.20942 21 ft 12 kts 171°
2026-05-04 17:57 43.65368 7.20957 21 ft 10 kts 182°
2026-05-04 17:57 43.65314 7.20907 21 ft 9 kts 224°
2026-05-04 17:57 43.65275 7.20852 21 ft 8 kts 225°
2026-05-04 17:57 43.65231 7.20791 21 ft 11 kts 225°
2026-05-04 17:58 43.65172 7.20711 21 ft 12 kts 225°
2026-05-04 17:58 43.65119 7.20636 21 ft 10 kts 225°
2026-05-04 17:58 43.65082 7.20598 21 ft 3 kts 199°
2026-05-04 17:58 43.65066 7.20597 21 ft 1 kts 176°
2026-05-04 17:59 43.65062 7.20598 21 ft 3 kts 176°
2026-05-04 17:59 43.65036 7.20622 22 ft 6 kts 134°
2026-05-04 17:59 43.65001 7.20699 23 ft 4 kts 49°
2026-05-04 18:00 43.65004 7.20703 23 ft 0 kts 47°
2026-05-04 18:01 43.65004 7.20704 23 ft 0 kts 47°
2026-05-04 18:01 43.65042 7.20757 23 ft 24 kts 45°
2026-05-04 18:02 43.65924 7.21977 30 ft 144 kts 49°
2026-05-04 18:02 43.66616 7.22999 634 ft 145 kts 57°
2026-05-04 18:02 43.67008 7.24256 1322 ft 141 kts 83°
2026-05-04 18:02 43.66995 7.25624 1915 ft 151 kts 104°
2026-05-04 18:03 43.66419 7.26952 2270 ft 173 kts 130°
2026-05-04 18:03 43.65539 7.28245 2550 ft 195 kts 130°
2026-05-04 18:03 43.64576 7.29665 2999 ft 206 kts 130°
2026-05-04 18:03 43.63682 7.31238 3575 ft 210 kts 114°
2026-05-04 18:04 43.63429 7.33196 4221 ft 214 kts 82°
2026-05-04 18:04 43.63868 7.35167 5014 ft 216 kts 71°
2026-05-04 18:04 43.64931 7.39070 6578 ft 219 kts 72°
2026-05-04 18:05 43.65281 7.40390 7006 ft 223 kts 72°
2026-05-04 18:05 43.65814 7.42427 7637 ft 229 kts 72°
2026-05-04 18:05 43.66373 7.44512 8321 ft 233 kts 73°
2026-05-04 18:05 43.66931 7.46645 8972 ft 239 kts 74°
2026-05-04 18:06 43.68391 7.50984 9881 ft 277 kts 44°
2026-05-04 18:06 43.70130 7.52300 10057 ft 302 kts 14°
2026-05-04 18:06 43.72224 7.52300 10020 ft 305 kts 342°
2026-05-04 18:07 43.74052 7.50771 10114 ft 321 kts 310°
2026-05-04 18:07 43.75194 7.48099 10063 ft 322 kts 283°
2026-05-04 18:07 43.75505 7.45103 10104 ft 318 kts 269°
2026-05-04 18:07 43.75560 7.41993 10073 ft 324 kts 268°
2026-05-04 18:08 43.75615 7.38877 10052 ft 324 kts 269°
2026-05-04 18:08 43.75688 7.35750 10045 ft 325 kts 269°
2026-05-04 18:08 43.75807 7.32659 10069 ft 327 kts 273°
2026-05-04 18:08 43.76184 7.29553 10094 ft 328 kts 281°
2026-05-04 18:09 43.78597 7.24181 10171 ft 341 kts 316°
2026-05-04 18:09 43.82553 7.20266 11621 ft 352 kts 322°
2026-05-04 18:10 43.84556 7.18292 12421 ft 354 kts 322°
2026-05-04 18:10 43.86544 7.16312 13197 ft 357 kts 321°
2026-05-04 18:10 43.88571 7.14299 13966 ft 359 kts 321°
2026-05-04 18:10 43.90621 7.12279 14642 ft 363 kts 321°
2026-05-04 18:11 43.92690 7.10252 15291 ft 365 kts 322°
2026-05-04 18:11 43.94785 7.08203 15907 ft 370 kts 321°
2026-05-04 18:11 43.96899 7.06142 16544 ft 374 kts 321°
2026-05-04 18:11 43.99037 7.04056 17171 ft 377 kts 321°
2026-05-04 18:12 44.01199 7.01947 17804 ft 381 kts 321°
2026-05-04 18:12 44.03384 6.99813 18385 ft 386 kts 321°
2026-05-04 18:12 44.05595 6.97648 18937 ft 389 kts 321°
2026-05-04 18:12 44.07793 6.95495 19475 ft 391 kts 321°
2026-05-04 18:13 44.10030 6.93300 20026 ft 393 kts 321°
2026-05-04 18:13 44.12306 6.91145 20560 ft 398 kts 326°
2026-05-04 18:13 44.17561 6.88557 21583 ft 411 kts 349°
2026-05-04 18:14 44.20415 6.88115 22059 ft 414 kts 351°
2026-05-04 18:14 44.23287 6.87689 22593 ft 416 kts 351°
2026-05-04 18:14 44.26181 6.87257 23103 ft 418 kts 351°
2026-05-04 18:15 44.32004 6.86375 23963 ft 423 kts 351°
2026-05-04 18:15 44.37870 6.85485 24748 ft 428 kts 351°
2026-05-04 18:15 44.40841 6.85034 25135 ft 430 kts 351°
2026-05-04 18:16 44.43828 6.84579 25510 ft 433 kts 351°
2026-05-04 18:16 44.46835 6.84119 25894 ft 436 kts 351°
2026-05-04 18:16 44.49870 6.83655 26238 ft 440 kts 351°
2026-05-04 18:17 44.56014 6.82720 26985 ft 446 kts 350°
2026-05-04 18:17 44.59106 6.82251 27341 ft 448 kts 350°
2026-05-04 18:17 44.65315 6.81305 28043 ft 454 kts 350°
2026-05-04 18:18 44.68468 6.80818 28402 ft 456 kts 350°
2026-05-04 18:18 44.71634 6.80328 28742 ft 459 kts 350°
2026-05-04 18:18 44.74819 6.79835 29061 ft 461 kts 350°
2026-05-04 18:18 44.78024 6.79341 29393 ft 464 kts 350°
2026-05-04 18:19 44.84451 6.78539 30036 ft 469 kts 353°
2026-05-04 18:19 44.87725 6.78325 30282 ft 472 kts 354°
2026-05-04 18:19 44.91021 6.78180 30543 ft 474 kts 355°
2026-05-04 18:20 44.94326 6.78052 30780 ft 475 kts 355°
2026-05-04 18:20 44.97642 6.77902 31020 ft 477 kts 354°
2026-05-04 18:20 45.00927 6.77718 31273 ft 477 kts 354°
2026-05-04 18:20 45.04248 6.77507 31595 ft 476 kts 353°
2026-05-04 18:21 45.07558 6.77279 31965 ft 475 kts 353°
2026-05-04 18:21 45.10857 6.77042 32313 ft 474 kts 353°
2026-05-04 18:21 45.14155 6.76804 32669 ft 473 kts 353°
2026-05-04 18:21 45.17445 6.76573 33041 ft 472 kts 353°
2026-05-04 18:22 45.20730 6.76351 33375 ft 472 kts 353°
2026-05-04 18:22 45.24010 6.76135 33688 ft 472 kts 353°
2026-05-04 18:22 45.27290 6.75918 34022 ft 471 kts 353°
2026-05-04 18:22 45.30520 6.75702 34326 ft 470 kts 353°
2026-05-04 18:23 45.33785 6.75483 34626 ft 469 kts 353°
2026-05-04 18:23 45.37051 6.75267 34883 ft 469 kts 353°
2026-05-04 18:23 45.40312 6.75050 35180 ft 468 kts 352°
2026-05-04 18:23 45.43569 6.74833 35489 ft 467 kts 352°
2026-05-04 18:24 45.46817 6.74617 35787 ft 466 kts 352°
2026-05-04 18:24 45.50069 6.74397 36028 ft 466 kts 352°
2026-05-04 18:24 45.56496 6.73960 36102 ft 463 kts 352°
2026-05-04 18:25 45.62933 6.73516 36096 ft 462 kts 352°
2026-05-04 18:25 45.69372 6.73062 36069 ft 461 kts 352°
2026-05-04 18:26 45.75749 6.72625 36070 ft 462 kts 352°
2026-05-04 18:26 45.82186 6.72187 36072 ft 462 kts 352°
2026-05-04 18:27 45.88613 6.71749 36067 ft 462 kts 352°
2026-05-04 18:27 45.95058 6.71311 36065 ft 463 kts 352°
2026-05-04 18:28 46.01459 6.70878 36054 ft 464 kts 352°
2026-05-04 18:28 46.07923 6.70440 36041 ft 464 kts 352°
2026-05-04 18:29 46.14278 6.69259 36041 ft 455 kts 339°
2026-05-04 18:29 46.20256 6.66407 36037 ft 452 kts 336°
2026-05-04 18:30 46.29184 6.62072 36042 ft 454 kts 336°
2026-05-04 18:31 46.35175 6.59157 36039 ft 454 kts 336°
2026-05-04 18:31 46.41168 6.56230 36049 ft 454 kts 336°
2026-05-04 18:32 46.47127 6.53311 36049 ft 454 kts 336°
2026-05-04 18:32 46.53129 6.50365 36050 ft 454 kts 336°
2026-05-04 18:33 46.59125 6.47414 36077 ft 454 kts 336°
2026-05-04 18:33 46.65127 6.44445 36053 ft 456 kts 336°
2026-05-04 18:34 46.71140 6.41474 36041 ft 456 kts 336°
2026-05-04 18:34 46.77127 6.38507 36041 ft 457 kts 336°
2026-05-04 18:35 46.83152 6.35509 36045 ft 457 kts 336°
2026-05-04 18:35 46.89190 6.32495 36041 ft 457 kts 336°
2026-05-04 18:36 46.95221 6.29486 36042 ft 457 kts 336°
2026-05-04 18:36 47.01209 6.26492 36048 ft 458 kts 336°
2026-05-04 18:37 47.07196 6.23309 36038 ft 454 kts 329°
2026-05-04 18:37 47.12867 6.19228 36033 ft 453 kts 329°
2026-05-04 18:38 47.18527 6.15135 36041 ft 454 kts 329°
2026-05-04 18:38 47.24166 6.11067 36038 ft 454 kts 329°
2026-05-04 18:39 47.29860 6.06933 36028 ft 455 kts 329°
2026-05-04 18:39 47.35833 6.03844 36022 ft 464 kts 346°
2026-05-04 18:40 47.42341 6.03440 36019 ft 470 kts 358°
2026-05-04 18:40 47.48897 6.03619 36022 ft 470 kts 358°
2026-05-04 18:41 47.55410 6.03744 36018 ft 470 kts 358°
2026-05-04 18:41 47.61976 6.03877 36015 ft 470 kts 358°
2026-05-04 18:42 47.68494 6.04016 36023 ft 471 kts 358°
2026-05-04 18:42 47.75047 6.04167 36021 ft 471 kts 358°
2026-05-04 18:43 47.81595 6.04357 36026 ft 471 kts 358°
2026-05-04 18:43 47.88145 6.04570 36030 ft 471 kts 359°
2026-05-04 18:44 47.94691 6.04780 36030 ft 470 kts 358°
2026-05-04 18:44 48.01242 6.04988 36023 ft 470 kts 358°
2026-05-04 18:45 48.07789 6.05189 36012 ft 470 kts 359°
2026-05-04 18:45 48.14292 6.05391 36018 ft 470 kts 359°
2026-05-04 18:46 48.20843 6.05600 36014 ft 470 kts 359°
2026-05-04 18:46 48.27403 6.05811 36009 ft 470 kts 359°
2026-05-04 18:47 48.33901 6.06018 36014 ft 470 kts 359°
2026-05-04 18:47 48.40456 6.06304 36012 ft 470 kts 359°
2026-05-04 18:48 48.47009 6.06645 36010 ft 470 kts 360°
2026-05-04 18:48 48.53506 6.06975 36007 ft 470 kts 359°
2026-05-04 18:49 48.60049 6.07294 36026 ft 470 kts 359°
2026-05-04 18:49 48.66593 6.07597 36010 ft 470 kts 359°
2026-05-04 18:50 48.73111 6.07902 35998 ft 470 kts 359°
2026-05-04 18:50 48.78556 6.08164 35996 ft 470 kts 359°
2026-05-04 18:51 48.85115 6.08476 35973 ft 470 kts 359°
2026-05-04 18:51 48.91677 6.08779 35969 ft 470 kts 359°
2026-05-04 18:52 48.98187 6.09086 35973 ft 471 kts 359°
2026-05-04 18:52 49.04757 6.09405 35973 ft 472 kts 359°
2026-05-04 18:53 49.11336 6.09720 35976 ft 472 kts 359°
2026-05-04 18:53 49.17858 6.10043 35979 ft 472 kts 359°
2026-05-04 18:54 49.24441 6.10366 35982 ft 472 kts 359°
2026-05-04 18:54 49.30974 6.10683 35976 ft 472 kts 359°
2026-05-04 18:55 49.37550 6.11007 35981 ft 472 kts 359°
2026-05-04 18:55 49.44122 6.10884 35971 ft 469 kts 348°
2026-05-04 18:55 49.47305 6.09829 35967 ft 465 kts 339°
2026-05-04 18:56 49.53059 6.05697 35960 ft 455 kts 321°
2026-05-04 18:56 49.58265 6.00134 35960 ft 455 kts 321°
2026-05-04 18:57 49.63485 5.94566 35965 ft 456 kts 320°
2026-05-04 18:57 49.68661 5.89010 35966 ft 456 kts 320°
2026-05-04 18:58 49.73872 5.83386 35981 ft 456 kts 321°
2026-05-04 18:58 49.79084 5.77754 35974 ft 456 kts 320°
2026-05-04 18:59 49.84251 5.72143 35977 ft 456 kts 320°
2026-05-04 18:59 49.89451 5.66477 35977 ft 456 kts 320°
2026-05-04 19:00 49.94639 5.60818 35974 ft 455 kts 320°
2026-05-04 19:00 49.99823 5.55159 35973 ft 455 kts 320°
2026-05-04 19:01 50.05009 5.49486 35970 ft 455 kts 320°
2026-05-04 19:01 50.10152 5.43834 35988 ft 455 kts 320°
2026-05-04 19:02 50.15325 5.38124 35980 ft 455 kts 320°
2026-05-04 19:02 50.20506 5.32407 35972 ft 455 kts 320°
2026-05-04 19:03 50.25651 5.26722 35973 ft 455 kts 320°
2026-05-04 19:03 50.30819 5.20969 35980 ft 455 kts 320°
2026-05-04 19:04 50.35983 5.15212 35977 ft 455 kts 320°
2026-05-04 19:04 50.41143 5.09458 35972 ft 455 kts 320°
2026-05-04 19:05 50.46274 5.03710 35989 ft 455 kts 320°
2026-05-04 19:05 50.51425 4.97922 35984 ft 454 kts 320°
2026-05-04 19:06 50.56546 4.92157 35984 ft 454 kts 320°
2026-05-04 19:06 50.61684 4.86354 35984 ft 454 kts 320°
2026-05-04 19:07 50.66797 4.80560 35983 ft 453 kts 320°
2026-05-04 19:07 50.71908 4.74762 35976 ft 453 kts 320°
2026-05-04 19:08 50.77040 4.68925 35766 ft 454 kts 320°
2026-05-04 19:08 50.79602 4.66003 35543 ft 453 kts 321°
2026-05-04 19:08 50.82156 4.63082 35295 ft 452 kts 321°
2026-05-04 19:09 50.84677 4.60191 35054 ft 452 kts 320°
2026-05-04 19:09 50.87227 4.57256 34770 ft 452 kts 319°
2026-05-04 19:09 50.89607 4.53991 33936 ft 452 kts 309°
2026-05-04 19:09 50.91588 4.50191 33387 ft 442 kts 301°
2026-05-04 19:10 50.93222 4.46104 32834 ft 435 kts 297°
2026-05-04 19:10 50.94775 4.42075 32285 ft 431 kts 298°
2026-05-04 19:10 50.96335 4.38029 31731 ft 428 kts 298°
2026-05-04 19:10 50.97891 4.33996 31191 ft 424 kts 298°
2026-05-04 19:11 50.99425 4.30018 30653 ft 421 kts 299°
2026-05-04 19:11 51.00929 4.26112 30125 ft 418 kts 299°
2026-05-04 19:11 51.02436 4.22188 29543 ft 415 kts 299°
2026-05-04 19:11 51.03934 4.18281 29025 ft 410 kts 299°
2026-05-04 19:12 51.05406 4.14427 28495 ft 405 kts 299°
2026-05-04 19:12 51.08327 4.06837 27506 ft 397 kts 303°
2026-05-04 19:12 51.10029 4.03461 27006 ft 395 kts 312°
2026-05-04 19:13 51.12067 4.00537 26515 ft 393 kts 322°
2026-05-04 19:13 51.14267 3.97955 26042 ft 390 kts 322°
2026-05-04 19:13 51.16438 3.95398 25546 ft 387 kts 322°
2026-05-04 19:13 51.18599 3.92843 25065 ft 384 kts 322°
2026-05-04 19:14 51.20764 3.90353 24572 ft 383 kts 327°
2026-05-04 19:14 51.23098 3.88443 24109 ft 381 kts 338°
2026-05-04 19:14 51.25641 3.87246 23606 ft 382 kts 349°
2026-05-04 19:14 51.28284 3.86831 23021 ft 382 kts 360°
2026-05-04 19:15 51.30939 3.86785 22511 ft 380 kts 360°
2026-05-04 19:15 51.33583 3.86733 21994 ft 378 kts 360°
2026-05-04 19:15 51.36211 3.86676 21480 ft 376 kts 359°
2026-05-04 19:15 51.38830 3.86615 20969 ft 375 kts 360°
2026-05-04 19:16 51.41401 3.86555 20469 ft 373 kts 359°
2026-05-04 19:16 51.43991 3.86494 19962 ft 371 kts 359°
2026-05-04 19:16 51.46573 3.86430 19457 ft 370 kts 359°
2026-05-04 19:16 51.49143 3.86366 18956 ft 368 kts 359°
2026-05-04 19:17 51.51695 3.86306 18496 ft 365 kts 359°
2026-05-04 19:17 51.54242 3.86252 17927 ft 366 kts 359°
2026-05-04 19:17 51.56781 3.86195 17433 ft 363 kts 359°
2026-05-04 19:17 51.59296 3.86136 16936 ft 361 kts 359°
2026-05-04 19:18 51.61746 3.86078 16452 ft 352 kts 359°
2026-05-04 19:18 51.64159 3.86019 15984 ft 341 kts 359°
2026-05-04 19:18 51.66503 3.85960 15528 ft 333 kts 359°
2026-05-04 19:18 51.68819 3.85918 15078 ft 332 kts
2026-05-04 19:19 51.71101 3.86433 14624 ft 330 kts 15°
2026-05-04 19:19 51.73215 3.87768 14183 ft 331 kts 28°
2026-05-04 19:19 51.75110 3.89879 13729 ft 332 kts 40°
2026-05-04 19:19 51.76831 3.92363 13241 ft 331 kts 41°
2026-05-04 19:20 51.78544 3.94836 12791 ft 329 kts 41°
2026-05-04 19:20 51.80250 3.97299 12342 ft 328 kts 41°
2026-05-04 19:20 51.81951 3.99747 11894 ft 326 kts 41°
2026-05-04 19:20 51.83640 4.02182 11445 ft 325 kts 41°
2026-05-04 19:21 51.85326 4.04615 11008 ft 324 kts 41°
2026-05-04 19:21 51.87002 4.07042 10573 ft 322 kts 41°
2026-05-04 19:21 51.88669 4.09464 10146 ft 321 kts 42°
2026-05-04 19:21 51.90300 4.11838 10000 ft 309 kts 42°
2026-05-04 19:22 51.91855 4.14096 9886 ft 298 kts 41°
2026-05-04 19:22 51.93384 4.16301 9675 ft 291 kts 41°
2026-05-04 19:22 51.94885 4.18463 9332 ft 288 kts 41°
2026-05-04 19:22 51.96373 4.20612 8966 ft 285 kts 41°
2026-05-04 19:23 51.97851 4.22757 8580 ft 284 kts 41°
2026-05-04 19:23 51.99314 4.24909 8191 ft 283 kts 42°
2026-05-04 19:23 52.00750 4.27020 8033 ft 273 kts 41°
2026-05-04 19:23 52.02128 4.29046 7896 ft 261 kts 39°
2026-05-04 19:24 52.03669 4.30410 7792 ft 248 kts 12°
2026-05-04 19:24 52.05340 4.30772 7651 ft 237 kts
2026-05-04 19:24 52.06972 4.30958 7400 ft 233 kts
2026-05-04 19:24 52.08567 4.31123 7113 ft 231 kts
2026-05-04 19:25 52.10173 4.31280 6807 ft 230 kts
2026-05-04 19:25 52.11747 4.31694 6514 ft 229 kts 21°
2026-05-04 19:25 52.13051 4.33154 6162 ft 230 kts 48°
2026-05-04 19:25 52.14028 4.35303 5557 ft 242 kts 56°
2026-05-04 19:26 52.14924 4.37607 5141 ft 237 kts 57°
2026-05-04 19:26 52.15788 4.39846 4822 ft 229 kts 57°
2026-05-04 19:26 52.16619 4.41981 4515 ft 221 kts 57°
2026-05-04 19:26 52.17430 4.44062 4218 ft 214 kts 57°
2026-05-04 19:27 52.18214 4.46077 3935 ft 207 kts 57°
2026-05-04 19:27 52.18972 4.48027 3661 ft 201 kts 56°
2026-05-04 19:27 52.19709 4.49925 3414 ft 195 kts 56°
2026-05-04 19:27 52.20421 4.51756 3171 ft 189 kts 57°
2026-05-04 19:28 52.21116 4.53549 2902 ft 186 kts 56°
2026-05-04 19:28 52.21800 4.55313 2638 ft 182 kts 56°
2026-05-04 19:28 52.22478 4.57062 2404 ft 181 kts 56°
2026-05-04 19:28 52.23134 4.58758 2156 ft 171 kts 56°
2026-05-04 19:29 52.23736 4.60311 1951 ft 156 kts 56°
2026-05-04 19:29 52.24293 4.61744 1753 ft 143 kts 56°
2026-05-04 19:29 52.24816 4.63098 1525 ft 136 kts 55°
2026-05-04 19:29 52.25314 4.64399 1360 ft 135 kts 55°
2026-05-04 19:30 52.25816 4.65686 1167 ft 132 kts 55°
2026-05-04 19:30 52.26311 4.66971 1001 ft 132 kts 54°
2026-05-04 19:30 52.26802 4.68230 778 ft 133 kts 54°
2026-05-04 19:30 52.27296 4.69510 636 ft 132 kts 56°
2026-05-04 19:31 52.27788 4.70799 409 ft 132 kts 53°
2026-05-04 19:31 52.28277 4.72070 283 ft 133 kts 56°
2026-05-04 19:31 52.28764 4.73350 96 ft 130 kts 56°
2026-05-04 19:31 52.29219 4.74524 2 ft 111 kts 57°
2026-05-04 19:32 52.29569 4.75438 -2 ft 81 kts 58°
2026-05-04 19:32 52.29812 4.76069 -4 ft 51 kts 58°
2026-05-04 19:32 52.29959 4.76448 -3 ft 25 kts 55°
2026-05-04 19:32 52.30098 4.76599 -1 ft 23 kts 27°
2026-05-04 19:33 52.30233 4.76716 -1 ft 19 kts 28°
2026-05-04 19:33 52.30316 4.76834 -1 ft 16 kts 57°
2026-05-04 19:33 52.30376 4.76988 -1 ft 17 kts 58°
2026-05-04 19:33 52.30439 4.77153 -1 ft 18 kts 58°
2026-05-04 19:34 52.30508 4.77334 -1 ft 20 kts 57°
2026-05-04 19:34 52.30574 4.77505 -1 ft 16 kts 56°
2026-05-04 19:34 52.30659 4.77588 -1 ft 15 kts
2026-05-04 19:34 52.30773 4.77599 -1 ft 17 kts
2026-05-04 19:35 52.30901 4.77611 -1 ft 19 kts
2026-05-04 19:35 52.31040 4.77623 -1 ft 20 kts
2026-05-04 19:35 52.31186 4.77636 -1 ft 22 kts
2026-05-04 19:35 52.31336 4.77651 -1 ft 20 kts
2026-05-04 19:36 52.31451 4.77638 -1 ft 15 kts 338°
2026-05-04 19:36 52.31508 4.77564 -1 ft 17 kts 317°
2026-05-04 19:36 52.31577 4.77341 -1 ft 18 kts 268°
2026-05-04 19:36 52.31571 4.77143 -1 ft 17 kts 266°
2026-05-04 19:37 52.31563 4.76954 -1 ft 16 kts 266°
2026-05-04 19:37 52.31558 4.76777 -1 ft 15 kts 267°
2026-05-04 19:37 52.31552 4.76611 -1 ft 14 kts 266°
2026-05-04 19:37 52.31546 4.76446 -1 ft 15 kts 267°
2026-05-04 19:38 52.31542 4.76323 -1 ft 17 kts 267°
2026-05-04 19:38 52.31536 4.76118 -1 ft 19 kts 268°
2026-05-04 19:38 52.31526 4.75890 -1 ft 20 kts 268°
2026-05-04 19:38 52.31520 4.75684 -1 ft 16 kts 266°
2026-05-04 19:39 52.31514 4.75552 -1 ft 4 kts 267°
2026-05-04 19:39 52.31514 4.75539 -1 ft 0 kts 267°
2026-05-04 19:42 52.31514 4.75530 -1 ft 2 kts 267°
2026-05-04 19:42 52.31513 4.75501 -1 ft 4 kts 268°
2026-05-04 19:42 52.31501 4.75463 -1 ft 4 kts 200°
2026-05-04 19:42 52.31454 4.75468 -1 ft 10 kts 175°
2026-05-04 19:43 52.31375 4.75476 -1 ft 12 kts 177°
2026-05-04 19:43 52.31297 4.75483 -1 ft 11 kts 176°
2026-05-04 19:43 52.31222 4.75491 -1 ft 11 kts 176°
2026-05-04 19:43 52.31155 4.75497 -1 ft 8 kts 175°
2026-05-04 19:44 52.31104 4.75488 -1 ft 7 kts 208°
2026-05-04 19:44 52.31073 4.75490 -1 ft 5 kts 141°
2026-05-04 19:44 52.31058 4.75506 -1 ft 2 kts 148°
2026-05-04 19:44 52.31048 4.75515 -1 ft 1 kts 148°
2026-05-04 19:45 52.31045 4.75519 -1 ft 0 kts 148°